Weather History for Salt Point, LA

Change the Weather History Date:

Wednesday, November 21, 2012

  Actual Average Record
Temperature  
Mean Temperature 64 °F -  
Max Temperature 72 °F 66 °F 80 °F (2011)
Min Temperature 55 °F 51 °F 37 °F (2000)
Degree Days  
Heating Degree Days 2    
Growing Degree Days 14 (Base 50)    
Moisture  
Dew Point 54 °F    
Average Humidity 76    
Maximum Humidity 90    
Minimum Humidity 57    
Precipitation  
Precipitation 0.00 in - - ()
Sea Level Pressure  
Sea Level Pressure 30.18 in    
Wind  
Wind Speed 1 mph (West)    
Max Wind Speed 6 mph    
Max Gust Speed -    
Averages and records for this station are not official NWS values.
T = Trace of Precipitation, MM = Missing Value Source: NWS Daily Summary

Daily Weather History Graph

Daily Weather History Graph

Search for Another Location

Airport:

Trip Planner

Search our weather history database for the weather conditions in past years. The results will help you decide how hot, cold, wet, or windy it might be!

Date:

Astronomy

Nov. 21, 2012 Rise Set
Actual Time 6:35 AM CST 5:08 PM CST
Civil Twilight 6:10 AM CST 5:33 PM CST
Nautical Twilight 5:41 AM CST 6:02 PM CST
Astronomical Twilight 5:12 AM CST 6:31 PM CST
Moon 1:00 PM CST (11/21) 12:22 AM CST (11/21)
Length of Visible Light 11h 23m
Length of Day
10h 32m
First Quarter, 62% of the Moon is Illuminated
Nov 21
First Quarter
Nov 28
Full
Dec 6
Last Quarter
Dec 13
New
Dec 19
First Quarter

Hourly Weather History & Observations

Time (CST) Temp. Dew Point Humidity Pressure Visibility Wind Dir Wind Speed Gust Speed Precip Events Conditions
12:53 AM 55.9 °F 52.0 °F 87% 30.17 in - Calm Calm - N/A   Unknown
1:53 AM 55.0 °F 51.1 °F 86% 30.17 in - Calm Calm - N/A   Unknown
2:53 AM 55.9 °F 52.0 °F 87% 30.17 in - Calm Calm - N/A   Unknown
3:53 AM 55.9 °F 53.1 °F 90% 30.18 in - Calm Calm - N/A   Unknown
4:53 AM 55.9 °F 52.0 °F 87% 30.19 in - Calm Calm - N/A   Unknown
5:53 AM 55.9 °F 51.1 °F 84% 30.19 in - Calm Calm - N/A   Unknown
6:53 AM 55.0 °F 51.1 °F 86% 30.21 in - Calm Calm - N/A   Unknown
7:53 AM 61.0 °F 53.1 °F 75% 30.23 in - Calm Calm - N/A   Unknown
8:53 AM 64.0 °F 50.0 °F 60% 30.24 in - NW 5.8 mph - N/A   Unknown
9:53 AM 66.9 °F 51.1 °F 57% 30.24 in - WNW 3.5 mph - N/A   Unknown
10:53 AM 68.0 °F 54.0 °F 61% 30.22 in - West 3.5 mph - N/A   Unknown
11:53 AM 71.1 °F 55.9 °F 59% 30.20 in - Variable 3.5 mph - N/A   Unknown
12:53 PM 70.0 °F 57.9 °F 65% 30.17 in - Variable 3.5 mph - N/A   Unknown
1:53 PM 71.1 °F 59.0 °F 66% 30.15 in - West 5.8 mph - N/A   Unknown
2:53 PM 71.1 °F 57.9 °F 63% 30.14 in - West 5.8 mph - N/A   Unknown
3:53 PM 72.0 °F 57.9 °F 61% 30.14 in - WSW 3.5 mph - N/A   Unknown
4:53 PM 68.0 °F 61.0 °F 78% 30.14 in - Calm Calm - N/A   Unknown
5:53 PM 66.0 °F 60.1 °F 81% 30.15 in - SW 3.5 mph - N/A   Unknown
6:53 PM 64.0 °F 60.1 °F 87% 30.17 in - Calm Calm - N/A   Unknown
7:53 PM 62.1 °F 57.9 °F 86% 30.17 in - Calm Calm - N/A   Unknown
8:53 PM 60.1 °F 54.0 °F 80% 30.19 in - Calm Calm - N/A   Unknown
9:53 PM 59.0 °F 52.0 °F 78% 30.19 in - Calm Calm - N/A   Unknown
10:53 PM 57.0 °F 50.0 °F 77% 30.19 in - Calm Calm - N/A   Unknown
11:53 PM 57.0 °F 48.9 °F 74% 30.18 in - Calm Calm - N/A   Unknown